x

Southeast Hawaii - 205 Nm Southeast Of Hilo, Hi (51004) Wave Buoy

8:50pm - Wed 28th Jan 2015 All times are HST. -10 hours from GMT.

  • Sig Wave height 5.2ft
  • Swell Direction
  • Peak Period 17s
  • Average Period 7s
  • Wind
    11mph, 13mph gusts
  • Sea Temp 78°f
  • Air Temp 76°f
  • Sea Pressure 1013.8mb
  • Southeast Hawaii - 205 Nm Southeast Of Hilo, Hi
  • Southeast Hawaii - 205 Nm Southeast Of Hilo, Hi

More Historic Weather Station data

Upgrade to MSW Pro to gain access to the past 30 days of data for over 8000 Wavebouys and Weather Stations around the globe.

Join Pro

Comparision Forecast

View Surf forecast
   
Wed 01/28 8:50pm 5ft 17s 7s 11 13 mph 1013.8mb 78f 76f
7:50pm 6ft 17s 8s 9 16 mph 1013.4mb 78f 75f
6:50pm 6.5ft 17s 8s 9
mph
1012.8mb 78f 76f
5:50pm 6ft 17s 7s 9 11 mph 1012.3mb 78f 76f
4:50pm 6.5ft 17s 7s 9 13 mph 1011.8mb 78f 76f
3:50pm 6ft 17s 7s 9 11 mph 1011.7mb 78f 76f
2:50pm 6ft 17s 7s 9 11 mph 1011.5mb 78f 76f
1:50pm 6ft 17s 7s 11 13 mph 1012.1mb 78f 76f
12:50pm 5.5ft 11s 7s 9 13 mph 1013.2mb 78f 76f
11:50am 6ft 17s 6s 11 13 mph 1014.1mb 78f 76f
10:50am 6.5ft 19s 7s 11 13 mph 1014.7mb 78f 77f
9:50am 6.5ft 8s 7s 16 18 mph 1014.9mb 78f 76f
8:50am 6ft 19s 6s 20 22 mph 1014.3mb 78f 77f
7:50am 7ft 19s 7s 18 20 mph 1013.9mb 78f 76f
6:50am 6.5ft 19s 7s 11 16 mph 1013.4mb 78f 76f
5:50am 7ft 19s 7s 13 18 mph 1012.3mb 78f 75f
4:50am 7ft 11s 6s 16 20 mph 1011.7mb 78f 75f
3:50am 7ft 8s 6s 18 22 mph 1011.4mb 78f 76f
2:50am 6.5ft 8s 6s 13 18 mph 1011.9mb 78f 75f
1:50am 6ft 8s 6s 16 20 mph 1012.2mb 78f 75f
12:50am 7ft 8s 6s 18 22 mph 1012.9mb 78f 76f
Tue 01/27 11:50pm 7ft 7s 6s 18 22 mph 1013.2mb 78f 75f
10:50pm 7ft 8s 6s 20 25 mph 1013.4mb 78f 76f
9:50pm 7ft 8s 6s 20 22 mph 1013.6mb 78f 76f
8:50pm 7ft 8s 6s 20 25 mph 1013.2mb 78f 76f
7:50pm 7ft 12s 6s 20 22 mph 1012.8mb 78f 76f
6:50pm 7ft 8s 6s 20 22 mph 1012.2mb 78f 76f
5:50pm 7ft 8s 6s 20 22 mph 1011.5mb 78f 75f
4:50pm 7ft 8s 6s 20 25 mph 1010.9mb 78f 76f
3:50pm 7ft 13s 6s 20 25 mph 1010.9mb 78f 75f
2:50pm 7.5ft 8s 6s 20 25 mph 1011mb 78f 75f
1:50pm 8ft 8s 7s 20 22 mph 1011.6mb 78f 76f
12:50pm 7.5ft 11s 6s 18 22 mph 1012.5mb 78f 76f
11:50am 7ft 7s 6s 20 25 mph 1013.1mb 78f 75f
10:50am 8ft 8s 6s 20 22 mph 1014.1mb 78f 76f
9:50am 8.5ft 13s 7s 22 27 mph 1013.9mb 78f 75f
8:50am 8.5ft 8s 6s 20 22 mph 1014.3mb 78f 76f
7:50am 7.5ft 13s 6s 20 22 mph 1013.9mb 78f 76f
6:50am 8.5ft 13s 7s 20 22 mph 1013.3mb 78f 75f
5:50am 8.5ft 13s 7s 18 22 mph 1012.7mb 78f 75f
4:50am 8ft 8s 7s 18 20 mph 1012.5mb 78f 75f
3:50am 9ft 13s 7s 18 20 mph 1012mb 78f 75f
2:50am 8.5ft 13s 7s 18 22 mph 1012mb 78f 75f
1:50am 9ft 13s 7s 20 22 mph 1012mb 78f 75f
12:50am 9ft 13s 7s 20 25 mph 1012.2mb 78f 75f
Mon 01/26 11:50pm 8ft 12s 7s 20 25 mph 1012.5mb 78f 75f
10:50pm 9.5ft 13s 7s 22 25 mph 1012.7mb 78f 76f
9:50pm 9.5ft 14s 7s 20 25 mph 1012.8mb 78f 75f
8:50pm 9.5ft 14s 7s 22 25 mph 1012.6mb 78f 75f
7:50pm 9.5ft 14s 7s 22 27 mph 1012.2mb 78f 75f
6:50pm 9.5ft 8s 6s 22 27 mph 1011.6mb 78f 75f
5:50pm 10ft 14s 7s 25 27 mph 1010.8mb 78f 75f
4:50pm 9.5ft 14s 7s 22 27 mph 1010.2mb 78f 75f
3:50pm 9.5ft 8s 7s 22 29 mph 1010mb 78f 75f
2:50pm 9ft 8s 6s 22 27 mph 1009.6mb 78f 76f
1:50pm 9.5ft 8s 6s 22 25 mph 1010.2mb 78f 73f
12:50pm 10ft 8s 7s 20 25 mph 1011mb 78f 73f
11:50am 10ft 14s 7s 25 29 mph 1011.5mb 78f 76f
10:50am 10.5ft 14s 7s 22 27 mph 1012.2mb 78f 74f
9:50am 10ft 14s 7s 27 31 mph 1012.3mb 78f 74f
8:50am 10ft 15s 7s 22 29 mph 1012.1mb 78f 73f
7:50am 10ft 7s 7s 25 31 mph 1011.5mb 78f 74f
6:50am 10.5ft 14s 7s 22 27 mph 1011.1mb 78f 73f
5:50am 9.5ft 14s 7s 27 34 mph 1010.4mb 78f 74f
4:50am 9.5ft 15s 7s 27 34 mph 1010.1mb 78f 75f
3:50am 8ft 14s 7s 25 34 mph 1010.5mb 78f 73f
2:50am 8ft 15s 7s 18 25 mph 1011mb 78f 73f
1:50am 7.5ft 14s 8s 18 20 mph 1011.6mb 78f 74f
12:50am 7.5ft 13s 8s 16 18 mph 1012.7mb 78f 73f
Sun 01/25 11:50pm 8ft 14s 8s 13 16 mph 1012.7mb 78f 76f
10:50pm 8ft 15s 8s 11 16 mph 1013.3mb 78f 76f
9:50pm 8ft 9s 8s 13 16 mph 1013.7mb 78f 76f
8:50pm 8ft 14s 8s 11 16 mph 1013.7mb 78f 76f
7:50pm 8.5ft 15s 9s 11 13 mph 1013.5mb 78f 76f
6:50pm 7.5ft 12s 8s 11 13 mph 1013.1mb 78f 76f
5:50pm 8ft 14s 8s 11 13 mph 1012.7mb 78f 76f
4:50pm 7.5ft 15s 9s 9 11 mph 1012.2mb 78f 76f
3:50pm 8ft 15s 9s 7 9 mph 1012mb 78f 76f
2:50pm 7ft 14s 8s 9 11 mph 1012.2mb 78f 76f
1:50pm 7.5ft 12s 8s 16 18 mph 1012.4mb 78f 75f
12:50pm 7.5ft 15s 8s 11 13 mph 1013.5mb 78f 77f
11:50am 8ft 15s 8s 11 13 mph 1014.6mb 78f 77f
10:50am 7.5ft 11s 8s 13 16 mph 1015.1mb 78f 77f
9:50am 8ft 15s 8s 9 11 mph 1015.6mb 77f 76f
8:50am 7.5ft 15s 8s 9 11 mph 1015.3mb 77f 75f
7:50am 8ft 14s 9s 9 11 mph 1015mb 77f 75f